map of IGR home
Great Circle Mapper logo
IGR - Airport
Location
City:  Iguaçu, Misiones, Argentina
Near (Alt.):Iguazu
Name:Cataratas del Iguaçu
ICAO / IATA:SARI / IGR

Details
Type:Airport (Aerodrome, Airfield)
Use:Public/Civil
Latitude:25°44'14"S (-25.737280)
Longitude:54°28'24"W (-54.473443)
Datum:WGS 1984
Elevation:916 ft (279 m)
Runways:1
Longest:10826 × 148 ft (3300 × 45 m), paved

Time
Time Zone:UTC-3
Local Time:

Weather
METAR:SARI 241800Z 18011KT 9999 FEW030 24/17 Q1018
TAF:SARI 241700Z 2418/2518 18005KT 9999 FEW025 TX26/2418Z TN14/2510Z PROB40
TEMPO 2506/2510 00000KT 0500 BCFG FEW010

Related Locations
Nearby:
Farthest:SHI: 12364 mi / 19898 km
Shimojishima, Shimoji Island, JP

Find:

   beyond  
but within

Other Information
Maps:
NOTAMs:
Links:
Sources:

  
flag of Argentina
flag of Misiones
  

Sectional Chart

Flight Planning
at skyvector.com

Satellite Image

Google Maps Satellite View

 

Copyright © 2004-2014 Karl L. Swartz. All rights reserved.
The Great Circle Mapper name and logo are trademarks of the Great Circle Mapper.
All other trademarks mentioned herein belong to their respective owners.
Please see credits for attibutions and further copyright information.

  Follow gcmap on Facebook Follow gcmap on Twitter

hCard Microformat

Geo Microformat